When you browse on this site, cookies collect data to enhance your experience and personalize the content and advertising you see.
Visit our Privacy Policy to learn more. By continuing to use the site, you agree to this use of cookies and data.
  • In Romania
  • List of Countries
  • For 7 days
  • Water Temperature
  • Satellite Maps
  • Weather Map
  • Weather Widgets
  • user-avatar
    Login

    Hourly Weather Arrecife

    Today, 16 July, Tuesday

    Time Temperature Precipitation Wind Pressure Humidity
    00:00 +23°C° 0 mm 1 mps 677 mmHg 39%
    01:00 +23°C° 0 mm 1 mps 676 mmHg 42%
    02:00 +20°C° 0 mm 0 mps 676 mmHg 45%
    03:00 +19°C° 0 mm 0 mps 676 mmHg 48%
    04:00 +19°C° 0 mm 0 mps 676 mmHg 47%
    05:00 +20°C° 0 mm 0 mps 677 mmHg 46%
    06:00 +21°C° 0 mm 0 mps 677 mmHg 45%
    07:00 +25°C° 0 mm 1 mps 678 mmHg 39%
    08:00 +28°C° 0 mm 1 mps 679 mmHg 32%
    09:00 +31°C° 0 mm 2 mps 679 mmHg 26%
    10:00 +32°C° 0 mm 2 mps 680 mmHg 24%
    11:00 +34°C° 0 mm 3 mps 680 mmHg 21%
    12:00 +36°C° 0 mm 3 mps 680 mmHg 19%
    13:00 +36°C° 0 mm 4 mps 680 mmHg 18%
    14:00 +36°C° 0 mm 4 mps 680 mmHg 17%
    15:00 +37°C° 0 mm 5 mps 679 mmHg 17%
    16:00 +36°C° 0 mm 5 mps 679 mmHg 17%
    17:00 +35°C° 0 mm 5 mps 679 mmHg 18%
    18:00 +34°C° 0 mm 6 mps 678 mmHg 19%
    19:00 +30°C° 0 mm 4 mps 678 mmHg 25%
    20:00 +27°C° 0 mm 3 mps 678 mmHg 32%
    21:00 +24°C° 0 mm 2 mps 678 mmHg 38%
    22:00 +23°C° 0 mm 1 mps 678 mmHg 42%
    23:00 +22°C° 0 mm 1 mps 677 mmHg 46%

    Tomorrow, 17 July, Wednesday

    Time Temperature Precipitation Wind Pressure Humidity
    00:00 +21°C° 0 mm 1 mps 677 mmHg 51%
    01:00 +20°C° 0 mm 1 mps 677 mmHg 54%
    02:00 +17°C° 0 mm 0 mps 677 mmHg 57%
    03:00 +17°C° 0 mm 0 mps 676 mmHg 59%
    04:00 +17°C° 0 mm 0 mps 677 mmHg 57%
    05:00 +18°C° 0 mm 0 mps 677 mmHg 55%
    06:00 +19°C° 0 mm 0 mps 677 mmHg 53%
    07:00 +23°C° 0 mm 1 mps 678 mmHg 47%
    08:00 +25°C° 0 mm 1 mps 678 mmHg 40%
    09:00 +28°C° 0 mm 1 mps 679 mmHg 33%
    10:00 +29°C° 0 mm 2 mps 679 mmHg 29%
    11:00 +31°C° 0 mm 2 mps 679 mmHg 24%
    12:00 +34°C° 0 mm 3 mps 679 mmHg 20%
    13:00 +34°C° 0 mm 3 mps 679 mmHg 18%
    14:00 +35°C° 0 mm 4 mps 679 mmHg 17%
    15:00 +35°C° 0 mm 5 mps 679 mmHg 15%
    16:00 +35°C° 0 mm 5 mps 678 mmHg 16%
    17:00 +34°C° 0 mm 5 mps 678 mmHg 17%
    18:00 +33°C° 0 mm 5 mps 678 mmHg 18%
    19:00 +29°C° 0 mm 4 mps 677 mmHg 24%
    20:00 +26°C° 0 mm 2 mps 677 mmHg 30%
    21:00 +23°C° 0 mm 1 mps 677 mmHg 36%
    22:00 +22°C° 0 mm 1 mps 677 mmHg 39%
    23:00 +22°C° 0 mm 1 mps 677 mmHg 42%

    Day after tomorrow, 18 July, Thursday

    Time Temperature Precipitation Wind Pressure Humidity
    00:00 +21°C° 0 mm 1 mps 677 mmHg 44%
    01:00 +20°C° 0 mm 1 mps 676 mmHg 46%
    02:00 +18°C° 0 mm 0 mps 676 mmHg 48%
    03:00 +17°C° 0 mm 0 mps 675 mmHg 50%
    04:00 +18°C° 0 mm 0 mps 676 mmHg 49%
    05:00 +18°C° 0 mm 0 mps 676 mmHg 47%
    06:00 +19°C° 0 mm 0 mps 676 mmHg 46%
    07:00 +23°C° 0 mm 1 mps 677 mmHg 40%
    08:00 +26°C° 0 mm 1 mps 678 mmHg 34%
    09:00 +28°C° 0 mm 1 mps 679 mmHg 28%
    10:00 +30°C° 0 mm 1 mps 679 mmHg 26%
    11:00 +31°C° 0 mm 2 mps 679 mmHg 23%
    12:00 +34°C° 0 mm 2 mps 679 mmHg 21%
    13:00 +34°C° 0 mm 2 mps 679 mmHg 21%
    14:00 +35°C° 0 mm 2 mps 679 mmHg 20%
    15:00 +36°C° 0 mm 2 mps 678 mmHg 19%
    16:00 +35°C° 0 mm 3 mps 678 mmHg 21%
    17:00 +34°C° 0 mm 3 mps 678 mmHg 22%
    18:00 +34°C° 0 mm 4 mps 678 mmHg 23%
    19:00 +30°C° 0 mm 3 mps 678 mmHg 29%
    20:00 +27°C° 0 mm 2 mps 677 mmHg 35%
    21:00 +25°C° 0 mm 1 mps 677 mmHg 40%
    22:00 +24°C° 0 mm 1 mps 677 mmHg 42%
    23:00 +23°C° 0 mm 1 mps 677 mmHg 44%

    19 July, Friday

    Time Temperature Precipitation Wind Pressure Humidity
    00:00 +20°C° 0 mm 0 mps 677 mmHg 45%
    01:00 +20°C° 0 mm 0 mps 676 mmHg 47%
    02:00 +19°C° 0 mm 0 mps 676 mmHg 49%
    03:00 +18°C° 0 mm 0 mps 676 mmHg 51%
    04:00 +19°C° 0 mm 0 mps 676 mmHg 50%
    05:00 +20°C° 0 mm 0 mps 676 mmHg 49%
    06:00 +20°C° 0 mm 0 mps 676 mmHg 48%
    07:00 +25°C° 0 mm 1 mps 677 mmHg 41%
    08:00 +28°C° 0 mm 1 mps 678 mmHg 33%
    09:00 +31°C° 0 mm 2 mps 679 mmHg 25%
    10:00 +32°C° 0 mm 2 mps 679 mmHg 22%
    11:00 +35°C° 0 mm 3 mps 679 mmHg 19%
    12:00 +37°C° 0 mm 3 mps 679 mmHg 15%
    13:00 +37°C° 0 mm 4 mps 679 mmHg 16%
    14:00 +39°C° 0 mm 5 mps 679 mmHg 16%
    15:00 +39°C° 0 mm 5 mps 678 mmHg 17%
    16:00 +37°C° 0 mm 5 mps 678 mmHg 19%
    17:00 +36°C° 0 mm 5 mps 678 mmHg 21%
    18:00 +35°C° 0 mm 5 mps 677 mmHg 23%
    19:00 +32°C° 0 mm 4 mps 677 mmHg 29%
    20:00 +28°C° 0 mm 3 mps 677 mmHg 36%
    21:00 +25°C° 0 mm 2 mps 676 mmHg 42%
    22:00 +24°C° 0 mm 2 mps 676 mmHg 44%
    23:00 +24°C° 0 mm 2 mps 676 mmHg 45%

    20 July, Saturday

    Time Temperature Precipitation Wind Pressure Humidity
    00:00 +23°C° 0 mm 2 mps 676 mmHg 47%
    01:00 +21°C° 0 mm 2 mps 676 mmHg 48%
    02:00 +21°C° 0 mm 2 mps 676 mmHg 48%
    03:00 +21°C° 0 mm 1 mps 675 mmHg 48%
    04:00 +22°C° 0 mm 1 mps 676 mmHg 46%
    05:00 +23°C° 0 mm 2 mps 676 mmHg 43%
    06:00 +23°C° 0 mm 2 mps 676 mmHg 41%
    07:00 +26°C° 0 mm 2 mps 677 mmHg 35%
    08:00 +29°C° 0 mm 2 mps 678 mmHg 29%
    09:00 +32°C° 0 mm 2 mps 679 mmHg 24%
    10:00 +34°C° 0 mm 2 mps 679 mmHg 22%
    11:00 +36°C° 0 mm 3 mps 679 mmHg 21%
    12:00 +37°C° 0 mm 3 mps 680 mmHg 19%
    13:00 +38°C° 0 mm 3 mps 679 mmHg 19%
    14:00 +38°C° 0 mm 3 mps 679 mmHg 18%
    15:00 +39°C° 0 mm 3 mps 679 mmHg 18%
    16:00 +39°C° 0 mm 3 mps 679 mmHg 19%
    17:00 +38°C° 0 mm 3 mps 679 mmHg 19%
    18:00 +38°C° 0 mm 3 mps 679 mmHg 20%
    19:00 +34°C° 0 mm 2 mps 678 mmHg 31%
    20:00 +30°C° 0 mm 2 mps 678 mmHg 41%
    21:00 +26°C° 0 mm 2 mps 678 mmHg 52%
    22:00 +25°C° 0 mm 1 mps 678 mmHg 55%
    23:00 +24°C° 0 mm 1 mps 678 mmHg 59%

    21 July, Sunday

    Time Temperature Precipitation Wind Pressure Humidity
    00:00 +21°C° 0 mm 0 mps 678 mmHg 62%
    01:00 +21°C° 0 mm 0 mps 678 mmHg 64%
    02:00 +20°C° 0 mm 0 mps 678 mmHg 66%
    03:00 +22°C° 0 mm 1 mps 677 mmHg 67%
    04:00 +22°C° 0 mm 1 mps 678 mmHg 66%
    05:00 +23°C° 0 mm 1 mps 678 mmHg 65%
    06:00 +24°C° 0 mm 1 mps 678 mmHg 64%
    07:00 +26°C° 0 mm 1 mps 679 mmHg 54%
    08:00 +29°C° 0 mm 1 mps 680 mmHg 44%
    09:00 +31°C° 0 mm 1 mps 681 mmHg 34%
    10:00 +34°C° 0 mm 2 mps 681 mmHg 28%
    11:00 +36°C° 0 mm 2 mps 681 mmHg 23%
    12:00 +38°C° 0 mm 3 mps 682 mmHg 17%
    13:00 +38°C° 0 mm 4 mps 682 mmHg 16%
    14:00 +40°C° 0 mm 5 mps 681 mmHg 15%
    15:00 +40°C° 0 mm 5 mps 681 mmHg 14%
    16:00 +39°C° 0 mm 5 mps 681 mmHg 15%
    17:00 +39°C° 0 mm 5 mps 680 mmHg 16%
    18:00 +37°C° 0 mm 5 mps 680 mmHg 17%
    19:00 +34°C° 0 mm 4 mps 680 mmHg 24%
    20:00 +30°C° 0 mm 2 mps 679 mmHg 31%
    21:00 +27°C° 0 mm 1 mps 679 mmHg 38%
    22:00 +26°C° 0 mm 1 mps 679 mmHg 45%
    23:00 +25°C° 0 mm 1 mps 679 mmHg 52%
    Show more